Wind_Speed
14 13 11 4 2 4 2 5 12 12 12 11 7 11 12 10 5 4 26 18 22 18 16 15 18 18 18 19 18 16 15 16 16 15 15 14 15 14 14 13 13 12 11 12 12 11 10 9 8
15 15 7 3 3 2 3 13 16 16 15 17 12 18 10 6 7 15 23 29 22 20 19 17 19 19 19 19 18 16 15 15 14 13 14 13 14 14 13 12 12 12 12 11 11 10 8 7 7
13 13 2 3 3 3 3 13 15 18 14 11 7 4 5 6 16 30 25 31 22 22 21 19 20 20 19 19 17 16 15 15 13 14 13 13 13 12 12 12 11 11 11 10 9 9 8 7 6
10 3 5 2 8 12 8 15 18 19 13 17 17 11 9 20 25 22 38 26 23 17 21 20 20 19 19 18 16 16 14 14 12 12 13 13 12 11 11 11 11 11 10 10 9 8 7 6 5
9 4 2 2 20 14 12 14 18 15 18 14 20 12 13 17 21 35 36 25 22 21 22 19 19 19 19 17 15 15 14 12 11 11 11 12 11 11 11 11 11 11 10 9 8 8 7 6 5
4 4 3 9 12 12 11 16 19 16 21 17 22 20 10 26 35 39 29 23 24 20 23 19 19 18 17 15 14 14 12 11 11 11 10 11 10 9 10 11 11 10 10 10 9 8 7 6 5
14 10 6 11 15 9 11 14 8 22 16 19 20 19 14 26 35 36 28 27 26 26 26 21 18 17 15 15 14 13 11 10 10 9 8 7 8 9 10 11 11 10 10 9 8 8 7 5 4
13 11 16 13 7 16 11 14 9 20 20 22 24 10 22 26 36 32 27 26 26 27 27 23 20 18 15 14 13 12 11 9 9 9 8 7 6 7 10 11 11 11 10 8 7 6 7 6 4
14 6 7 12 14 6 13 16 18 18 18 14 12 24 33 34 33 28 27 27 27 28 26 22 21 19 18 15 12 11 10 9 8 7 5 3 4 5 7 9 10 11 8 7 6 6 4 3 3
17 3 5 9 12 5 12 15 14 14 14 19 26 30 36 34 31 26 25 25 19 26 29 25 23 20 20 15 14 11 9 7 7 8 2 10 9 6 7 4 8 10 8 5 5 4 4 5 2
20 8 12 12 16 13 7 23 16 17 15 27 29 30 28 31 24 23 25 24 33 31 31 29 26 22 20 21 16 14 11 13 10 9 10 8 7 8 5 1 3 9 8 5 3 2 3 5 11
19 18 14 19 16 18 21 15 17 11 20 24 27 30 30 27 21 27 23 26 26 25 29 31 28 22 19 18 15 18 16 17 17 10 10 5 2 5 5 6 5 5 5 4 4 2 3 6 7
21 21 25 20 9 22 23 19 3 17 23 25 28 28 28 26 25 25 26 28 25 25 24 29 30 26 17 16 14 15 13 9 11 12 8 7 3 9 3 10 4 0 6 7 3 2 5 3 8
21 18 15 15 19 16 14 22 9 10 22 26 27 27 28 28 30 33 32 29 29 26 24 29 27 26 17 12 9 8 10 11 5 6 9 4 2 2 5 5 6 3 8 5 5 3 3 2 4
23 19 17 17 15 12 12 10 9 14 23 23 25 25 23 26 36 30 32 35 31 28 26 29 26 24 20 16 9 9 8 8 8 3 6 3 6 2 0 6 6 3 3 5 5 3 7 2 1
25 21 17 21 21 16 15 14 15 25 18 22 24 23 22 22 27 36 39 35 31 29 30 27 26 26 25 19 15 12 11 11 9 10 9 7 7 4 2 1 3 1 2 3 5 2 2 5 1
21 20 22 21 23 18 18 12 25 15 21 24 21 22 22 20 21 27 30 30 29 29 29 26 25 28 27 21 18 18 15 11 12 10 9 11 10 6 4 1 3 3 2 6 4 2 4 9 8
23 22 19 24 21 24 22 20 21 15 22 16 23 21 21 23 23 27 28 30 31 28 27 29 25 23 29 24 21 19 16 15 13 11 10 16 10 8 8 3 5 3 5 10 6 1 2 1 3
24 20 24 22 22 23 20 16 20 9 15 24 23 22 23 23 22 29 29 29 29 30 29 32 27 26 31 26 24 19 19 16 16 14 12 14 9 9 11 8 6 7 2 4 6 3 2 1 2
27 24 25 23 25 14 21 17 26 25 36 20 22 13 22 22 22 22 30 31 31 33 32 32 30 30 29 26 25 22 18 19 19 17 15 14 11 13 13 11 9 6 6 8 5 6 3 4 3
28 27 24 21 21 24 18 16 20 27 17 23 21 31 24 23 23 21 24 30 32 33 34 34 34 29 30 26 24 21 20 19 22 20 19 19 18 15 15 13 9 7 8 11 8 6 2 2 5
27 27 26 25 19 17 22 16 20 16 21 25 27 24 23 23 22 23 23 28 33 33 35 36 36 33 31 30 26 23 21 19 19 21 20 20 21 18 17 15 12 9 8 11 9 10 3 4 7
25 25 26 26 20 18 20 17 14 21 21 21 22 21 25 25 25 25 24 32 35 35 35 36 36 35 31 34 27 30 24 23 23 22 21 24 25 23 19 18 16 15 15 11 6 13 9 5 5
24 22 25 23 18 17 23 19 17 17 21 19 21 20 26 26 26 25 31 33 32 34 36 36 36 36 34 33 39 26 30 24 23 23 21 21 20 25 22 19 19 17 13 12 12 9 9 12 7
21 22 14 15 17 17 22 20 13 19 24 23 22 22 21 26 25 24 25 24 33 34 36 36 37 35 36 33 34 39 24 34 27 22 28 21 22 25 28 27 22 20 17 14 13 14 12 12 11
28 26 15 22 18 17 22 23 20 21 19 27 24 23 21 22 24 26 25 25 34 35 38 38 39 39 38 39 36 36 36 25 34 29 20 27 22 24 27 32 31 26 22 20 18 16 16 14 15
26 26 24 22 20 16 19 20 23 24 23 19 14 22 23 22 24 26 26 30 35 36 38 40 40 41 41 41 37 35 36 34 29 33 27 20 26 21 23 29 32 27 23 24 23 21 19 17 20
28 22 21 17 21 20 19 23 19 22 22 22 18 16 20 22 23 24 24 27 35 40 42 41 39 42 42 41 40 39 37 40 37 29 36 30 23 24 15 27 31 28 26 24 24 22 22 22 20
22 21 25 20 16 15 14 14 15 25 25 21 22 17 16 20 23 22 23 30 37 39 38 39 39 38 38 40 40 39 39 36 37 35 33 37 32 31 24 21 29 29 26 28 26 26 24 26 26
29 28 25 12 21 15 14 5 12 5 23 20 17 21 19 17 23 21 22 24 30 34 37 40 39 37 41 40 38 38 35 36 37 38 36 34 33 33 35 27 26 28 28 28 29 29 28 26 31
Wind_Direction
170 173 169 166 258 228 223 181 85 81 78 94 117 111 109 32 153 143 146 150 147 139 137 129 131 133 137 141 140 127 118 109 108 100 92 91 87 87 87 90 89 91 92 98 95 94 95 90 83
167 181 169 270 251 262 212 83 83 91 120 100 94 136 97 83 108 123 137 151 147 138 135 135 133 134 139 137 133 126 117 113 108 106 104 96 92 92 88 88 92 90 94 97 99 100 101 97 88
187 197 272 198 313 260 70 86 132 123 115 117 100 65 72 95 113 139 143 148 148 141 137 141 138 138 139 133 132 126 119 114 116 110 103 100 98 91 87 87 94 93 93 95 99 98 98 100 102
199 191 249 267 235 266 150 174 102 124 119 107 120 74 86 112 135 150 150 147 136 143 138 141 139 139 138 136 133 125 125 121 120 119 110 107 103 89 91 92 91 93 92 93 95 97 94 88 89
175 224 291 31 277 227 127 121 137 137 130 126 108 102 109 139 143 139 150 148 146 148 140 141 143 142 139 137 133 129 126 132 130 121 116 115 108 101 99 98 94 93 93 94 94 96 95 92 86
207 127 125 236 212 139 117 140 120 116 119 118 108 118 128 133 131 144 147 156 148 152 145 147 146 147 141 137 138 131 139 133 134 132 127 126 128 121 112 105 101 97 97 97 98 97 91 84 93
224 251 227 298 294 83 115 77 124 132 137 119 133 116 125 135 145 151 153 152 157 154 146 150 149 146 143 143 142 148 146 145 142 134 127 120 129 129 124 119 115 112 109 105 101 95 90 74 81
238 283 341 325 352 101 96 108 142 93 111 135 132 143 146 143 148 155 155 153 156 149 144 154 152 151 148 148 155 155 153 156 151 134 127 126 131 137 115 112 124 122 117 111 109 96 82 64 58
249 292 315 334 336 99 113 103 88 101 131 145 134 142 145 146 152 153 163 156 158 150 152 160 158 159 157 158 162 162 167 164 150 118 97 77 166 190 136 148 132 129 126 119 92 81 74 34 75
231 111 251 264 272 352 324 121 130 131 128 117 114 125 148 148 158 167 165 157 165 162 158 166 165 165 165 162 170 168 177 172 141 131 225 169 209 150 148 150 138 127 114 115 106 101 136 234 235
239 182 222 240 263 222 18 302 147 137 138 126 134 143 154 155 165 159 163 166 173 177 167 166 172 169 176 165 159 180 194 187 177 149 166 217 191 149 106 179 198 137 125 129 115 206 136 295 256
232 229 191 291 275 172 140 319 142 159 134 129 143 151 156 164 165 163 169 176 167 189 171 166 164 169 181 161 166 193 190 194 170 179 191 162 110 114 133 161 299 220 172 124 126 60 115 217 320
238 246 183 199 233 151 114 274 252 134 134 133 144 157 157 164 165 170 168 180 184 188 176 160 161 169 196 170 188 198 185 193 184 167 186 231 127 142 72 149 127 244 100 103 90 95 122 45 1
232 233 235 216 213 177 175 195 144 167 137 139 152 165 163 168 168 176 173 186 198 174 181 158 154 171 186 189 204 235 184 196 208 173 190 218 157 282 44 119 124 158 95 59 94 84 82 242 49
242 244 243 246 243 240 214 132 200 122 142 150 160 166 175 169 172 175 179 186 192 173 179 163 163 173 181 199 211 208 202 193 207 229 151 166 268 358 341 75 92 133 111 135 115 106 111 128 183
248 245 226 218 236 224 217 210 114 129 245 160 163 170 174 183 173 178 182 185 173 175 176 170 180 176 182 196 204 203 221 219 206 209 204 203 219 234 171 355 46 355 108 160 152 215 290 212 258
239 237 236 240 213 224 208 210 143 186 279 161 168 173 173 181 183 181 180 173 171 176 173 180 183 173 177 192 198 207 225 222 218 223 214 197 190 217 235 69 154 228 302 154 130 165 229 237 214
229 219 227 234 202 209 227 226 170 158 223 201 173 175 176 179 188 179 187 181 174 177 175 179 183 189 179 185 199 205 223 213 231 224 223 186 182 203 236 238 198 242 128 156 129 317 237 102 86
235 225 222 227 235 208 224 180 162 148 322 272 170 173 184 179 184 177 190 183 177 176 177 179 186 192 175 179 191 209 209 207 216 232 220 188 189 216 235 232 270 212 186 166 156 174 236 353 122
230 240 227 230 221 205 228 214 171 160 192 242 153 207 181 176 178 180 185 182 185 179 180 180 188 191 182 183 190 203 204 210 211 221 224 210 216 217 230 235 240 237 191 187 179 162 279 204 185
225 231 243 226 243 185 217 239 205 190 171 133 254 194 173 174 179 181 180 186 185 181 181 182 187 191 189 188 193 199 210 217 208 212 219 211 215 225 227 229 219 209 190 198 184 179 214 89 234
222 226 242 254 228 224 195 214 213 223 218 177 205 173 173 177 179 183 183 189 185 186 184 184 186 192 192 191 194 199 204 207 220 207 215 213 217 210 219 213 213 211 203 182 180 183 178 221 204
226 217 228 248 257 248 229 229 211 211 221 205 180 185 176 182 181 183 187 189 191 186 184 185 186 191 194 196 199 199 202 213 212 221 214 217 210 208 207 212 208 210 221 215 202 169 196 225 256
218 226 215 231 245 245 242 216 225 226 211 219 190 199 181 178 180 182 184 186 194 188 185 186 187 191 194 196 203 205 204 206 217 211 222 209 199 205 210 215 213 216 221 217 200 191 206 214 245
209 214 212 210 217 232 234 244 242 224 195 203 201 194 193 174 177 179 178 184 186 190 188 187 185 189 194 199 202 210 212 209 219 220 215 205 203 200 205 210 211 210 211 213 221 207 210 221 229
209 212 216 212 211 217 238 228 231 252 262 196 199 182 195 182 173 177 178 181 185 192 188 186 186 189 193 198 203 207 211 209 216 224 218 218 214 211 211 210 206 205 211 221 218 211 211 219 225
203 216 216 228 223 223 218 225 252 226 245 249 219 188 185 184 172 176 175 180 182 188 191 191 189 190 192 196 201 204 208 209 210 217 225 226 223 232 220 212 204 204 205 211 214 215 220 217 223
220 198 216 229 235 228 223 218 215 218 218 222 222 209 194 181 175 175 175 179 184 188 192 193 193 191 194 196 199 204 206 207 211 214 216 227 226 223 229 201 198 198 203 210 211 215 219 223 221
210 212 209 228 233 238 251 229 210 200 202 206 208 209 226 189 175 177 176 178 186 189 188 194 196 193 195 198 201 204 207 207 208 211 216 217 226 227 230 205 193 198 199 207 212 213 218 220 223
210 216 207 220 213 243 265 277 10 230 178 200 206 202 201 219 172 176 176 178 182 183 189 193 196 199 199 201 203 207 207 209 209 211 214 214 214 223 224 228 210 204 205 205 213 216 221 224 217
Height
765 768 771 773 784 772 765 743 714 735 741 731 730 743 755 762 771 792 785 794 799 802 805 809 811 814 817 819 821 823 825 826 827 829 830 831 832 832 833 834 835 836 837 838 838 839 840 841 841
765 767 770 769 781 775 755 717 736 735 730 728 733 740 747 770 768 779 786 796 800 803 807 810 813 816 819 821 823 825 826 828 830 831 831 832 833 834 835 835 836 838 838 839 839 840 841 842 842
762 763 769 771 778 780 753 727 729 724 724 730 740 735 742 769 772 781 788 795 799 804 808 812 816 819 821 823 826 827 828 830 831 832 833 834 835 836 836 837 838 839 839 840 840 841 842 842 843
762 766 763 769 774 749 730 730 713 728 728 730 736 754 758 768 775 781 789 795 800 805 809 814 817 821 823 825 828 828 830 832 833 833 835 836 837 837 838 838 839 840 841 841 842 843 843 843 844
759 756 776 784 765 731 713 711 711 724 730 734 738 766 771 773 776 782 791 797 802 806 810 815 819 822 825 827 829 830 832 834 835 835 836 837 838 839 839 840 840 841 842 843 844 844 844 844 844
761 756 787 776 743 710 702 702 710 722 729 736 748 764 772 773 779 786 793 797 802 808 812 817 820 824 826 828 830 832 834 835 835 836 837 838 839 840 840 841 841 842 843 844 845 845 846 845 845
753 752 758 757 734 720 705 692 705 716 719 738 743 768 770 776 782 787 793 799 803 808 813 819 822 825 827 829 832 834 835 835 836 838 840 842 842 841 840 840 841 842 843 844 846 846 847 847 846
732 733 753 739 722 720 699 701 698 711 729 725 737 767 776 775 781 788 793 799 803 809 813 819 822 826 828 830 833 834 834 835 836 840 841 840 841 843 841 840 841 841 843 845 846 848 848 848 848
723 757 775 759 738 713 694 706 707 707 720 723 731 747 765 775 782 787 793 798 803 809 813 819 822 826 828 830 833 834 834 835 840 846 847 844 843 845 844 843 841 841 843 845 848 850 851 849 848
729 763 765 748 737 721 715 704 711 719 726 732 741 756 768 776 782 786 789 796 802 806 811 817 820 824 827 830 832 834 834 837 843 847 843 845 846 850 849 847 843 841 843 846 849 849 851 847 848
720 746 740 732 729 717 733 739 702 717 732 732 749 759 767 775 780 785 790 794 800 803 807 813 818 822 824 827 830 832 833 837 841 847 832 840 851 849 848 849 850 845 843 846 849 849 850 847 848
723 708 723 729 714 718 736 736 708 709 718 721 739 751 761 772 778 783 789 792 795 799 803 809 815 820 824 826 828 830 831 835 839 840 843 846 847 847 838 842 852 848 844 844 846 848 850 847 847
711 701 709 707 702 709 723 749 715 710 709 720 736 749 759 766 776 784 789 792 794 797 801 806 812 818 822 824 826 828 829 832 833 838 840 844 844 845 846 846 848 848 846 845 847 848 849 848 848
695 695 694 688 697 689 707 723 708 711 707 720 733 744 751 758 768 777 784 788 791 794 799 804 810 816 821 824 826 828 829 830 832 833 833 836 839 841 844 847 846 846 845 847 847 848 849 850 850
690 705 696 693 689 693 687 718 714 707 711 726 732 738 742 748 759 768 775 781 784 791 797 802 809 814 820 824 826 828 829 831 832 833 832 835 837 840 840 841 844 843 844 846 847 849 849 850 851
701 697 717 692 688 684 691 724 714 714 734 726 730 734 740 743 749 760 767 773 780 787 794 800 806 811 818 823 826 828 829 831 833 834 833 836 838 839 840 842 844 845 845 845 847 849 849 850 850
706 721 712 701 680 689 691 712 717 726 741 717 725 729 734 742 746 753 760 768 776 783 790 797 803 808 814 822 825 828 828 830 832 833 834 834 837 839 840 843 845 846 846 846 847 848 850 849 851
720 716 706 707 684 686 692 697 701 713 727 713 715 724 728 735 740 749 756 764 772 781 788 795 801 807 811 819 824 826 827 829 830 832 833 834 836 839 839 843 844 845 845 846 846 848 848 848 849
696 698 705 686 672 683 689 694 708 723 733 732 707 718 726 727 735 744 753 761 769 777 785 791 798 804 808 814 819 822 824 826 829 831 833 833 835 838 839 841 842 844 845 847 847 848 849 849 849
696 698 694 680 665 677 685 689 704 716 719 727 715 739 718 721 729 737 747 755 763 771 779 787 794 800 805 809 815 819 821 823 826 829 830 832 833 837 838 839 841 842 843 846 847 848 849 849 849
694 697 689 685 668 668 684 697 686 697 694 704 731 701 700 709 722 732 741 748 757 765 773 780 788 795 800 806 812 816 819 821 822 824 827 829 832 835 835 837 840 840 842 844 845 846 847 847 848
702 680 680 678 681 703 674 723 690 680 680 694 685 683 692 700 712 724 733 742 750 758 767 775 782 790 796 802 807 810 813 815 817 820 823 826 828 831 832 835 838 839 841 842 844 844 845 846 847
685 671 682 679 684 684 681 697 683 674 681 674 672 672 681 690 700 713 725 735 742 751 760 769 776 784 791 796 801 805 808 811 814 816 818 821 823 827 829 832 834 836 838 841 843 842 844 845 846
663 674 678 682 686 707 685 693 693 677 675 666 661 663 668 678 690 701 716 729 738 746 754 762 770 778 786 791 796 799 803 807 809 811 813 816 819 823 826 829 831 833 836 839 841 841 842 844 845
665 682 711 718 712 710 681 689 676 651 648 653 655 658 658 666 678 692 705 717 729 737 746 754 762 771 778 785 790 793 798 801 804 807 809 811 814 817 819 823 826 829 833 835 837 838 839 841 843
664 671 693 726 717 712 681 693 673 642 631 630 635 645 651 657 667 681 693 706 719 728 737 744 752 761 769 776 781 786 791 795 799 802 804 807 809 811 812 815 819 823 827 831 834 835 837 838 840
659 670 656 683 674 693 679 673 653 640 638 633 632 635 643 649 658 671 682 696 708 720 728 735 743 751 758 764 773 779 784 788 791 796 800 802 805 806 807 809 813 818 822 826 829 831 833 835 836
635 643 682 673 708 705 677 668 668 652 644 637 637 634 635 639 649 661 673 688 699 708 717 728 735 742 749 756 764 769 774 779 784 789 793 796 800 803 804 804 808 812 816 821 824 827 829 831 832
643 648 657 661 668 691 690 660 608 625 625 629 630 629 632 633 642 652 664 677 689 700 711 721 730 737 745 751 755 761 766 771 777 782 786 790 794 798 800 804 805 807 811 816 820 822 823 825 827
624 639 641 669 682 663 659 652 604 594 605 614 619 621 626 627 633 643 654 668 680 692 702 710 720 729 734 742 750 755 761 766 770 774 779 783 788 792 795 799 802 804 807 811 814 815 818 819 820